EW0532 Weather Reports


time (UTC)temp
C
wind
direction
speed
KPH
gust
KPH
rain 1hr
cm
rain 24hr
cm
rain mn
cm
humidity
%
barometer
mb
20260506123004 18 151 0.0 20.9 0.00 0.00 0.00 71 1009.7
20260506122505 18 303 3.2 20.9 0.00 0.00 0.00 71 1009.7
20260506122005 18 143 1.6 19.3 0.00 0.00 0.00 71 1009.8
20260506121512 18 203 1.6 19.3 0.00 0.00 0.00 71 1009.9
20260506121006 18 201 4.8 17.7 0.00 0.00 0.00 71 1010.1
20260506120503 18 153 6.4 22.5 0.00 0.00 0.00 71 1010.0
20260506120019 18 303 6.4 22.5 0.00 0.00 0.00 71 1010.0
20260506115506 18 186 8.0 20.9 0.00 0.00 0.00 71 1010.1
20260506115003 18 186 3.2 17.7 0.00 0.00 0.00 71 1010.2
20260506114515 18 78 1.6 17.7 0.00 0.00 0.00 72 1010.3
20260506114005 18 167 6.4 17.7 0.00 0.00 0.00 71 1010.2
20260506113504 18 151 6.4 14.5 0.00 0.00 0.00 72 1010.1
20260506113007 18 329 4.8 19.3 0.00 0.00 0.00 72 1010.2
20260506112511 18 166 8.0 22.5 0.00 0.00 0.00 72 1010.0
20260506112003 18 227 4.8 22.5 0.00 0.00 0.00 72 1010.2
20260506111513 18 194 1.6 14.5 0.00 0.00 0.00 73 1010.1
20260506111003 18 130 3.2 14.5 0.00 0.00 0.00 73 1010.1
20260506110509 18 351 4.8 17.7 0.00 0.00 0.00 73 1010.0
20260506110004 18 171 3.2 17.7 0.00 0.00 0.00 73 1009.9
20260506105507 18 171 4.8 19.3 0.00 0.00 0.00 73 1009.9
20260506105008 18 169 6.4 19.3 0.00 0.00 0.00 73 1009.8
20260506104522 18 205 4.8 14.5 0.00 0.00 0.00 74 1010.0
20260506104004 18 185 1.6 19.3 0.00 0.00 0.00 74 1010.0
20260506103507 18 147 3.2 19.3 0.00 0.00 0.00 74 1009.9
20260506103022 18 197 4.8 16.1 0.00 0.00 0.00 74 1010.0
20260506102504 18 187 4.8 16.1 0.00 0.00 0.00 74 1009.9
20260506102004 18 207 4.8 14.5 0.00 0.00 0.00 74 1009.9
20260506101510 17 174 6.4 12.9 0.00 0.00 0.00 74 1009.9
20260506101003 17 186 4.8 17.7 0.00 0.00 0.00 75 1009.9
20260506100504 17 172 4.8 17.7 0.00 0.00 0.00 75 1009.9
20260506100015 17 168 4.8 11.3 0.00 0.00 0.00 75 1009.7
20260506095508 17 168 3.2 12.9 0.00 0.00 0.00 75 1009.7
20260506095004 17 188 1.6 12.9 0.00 0.00 0.00 75 1009.8
20260506094512 17 158 3.2 14.5 0.00 0.00 0.00 75 1009.7
20260506094008 17 80 4.8 17.7 0.00 0.00 0.00 75 1009.7
20260506093507 17 179 3.2 17.7 0.00 0.00 0.00 75 1009.7
20260506093011 17 182 4.8 16.1 0.00 0.00 0.00 75 1009.7
20260506092507 17 123 3.2 12.9 0.00 0.00 0.00 75 1009.7
20260506092011 17 145 4.8 17.7 0.00 0.00 0.00 75 1009.7
20260506091526 17 175 4.8 17.7 0.00 0.00 0.00 75 1009.8
20260506091003 17 192 3.2 11.3 0.00 0.00 0.00 75 1009.8
20260506090505 17 130 0.0 6.4 0.00 0.00 0.00 74 1009.8
20260506090011 17 150 0.0 9.7 0.00 0.00 0.00 74 1009.9
20260506085504 17 155 1.6 9.7 0.00 0.00 0.00 74 1009.9
20260506085007 17 148 1.6 6.4 0.00 0.00 0.00 73 1009.9
20260506084516 18 149 0.0 4.8 0.00 0.00 0.00 73 1010.0
20260506084007 18 149 0.0 11.3 0.00 0.00 0.00 73 1010.0
20260506083508 18 152 1.6 14.5 0.00 0.00 0.00 72 1010.0
20260506083021 18 171 1.6 14.5 0.00 0.00 0.00 72 1010.0
20260506082507 18 148 3.2 16.1 0.00 0.00 0.00 72 1010.1
20260506082003 18 165 3.2 17.7 0.00 0.00 0.00 71 1010.0
20260506081516 18 148 6.4 17.7 0.00 0.00 0.00 71 1010.0
20260506081007 18 173 4.8 16.1 0.00 0.00 0.00 71 1009.9
20260506080510 18 154 6.4 16.1 0.00 0.00 0.00 71 1010.1
20260506073509 18 154 1.6 16.1 0.00 0.00 0.00 69 1010.2
20260506073018 18 187 1.6 16.1 0.00 0.00 0.00 69 1010.0
20260506072508 18 180 3.2 14.5 0.00 0.00 0.00 69 1010.0
20260506072008 18 194 1.6 11.3 0.00 0.00 0.00 68 1010.0
20260506071529 18 160 4.8 11.3 0.00 0.00 0.00 68 1010.0
20260506071012 18 130 3.2 12.9 0.00 0.00 0.00 68 1010.1
20260506070504 18 155 3.2 12.9 0.00 0.00 0.00 67 1010.1
20260506062509 19 192 3.2 11.3 0.00 0.00 0.00 65 1010.2
20260506062009 19 158 1.6 8.0 0.00 0.00 0.00 65 1010.2
20260506061517 19 196 3.2 9.7 0.00 0.00 0.00 64 1010.2
20260506061010 19 154 1.6 14.5 0.00 0.00 0.00 64 1010.2
20260506060510 19 206 4.8 14.5 0.00 0.00 0.00 64 1010.2
20260506051005 20 175 3.2 16.1 0.00 0.00 0.00 60 1010.8
20260506050502 20 156 4.8 20.9 0.00 0.00 0.00 60 1010.8
20260506045002 20 156 6.4 14.5 0.00 0.00 0.00 59 1010.8
20260506044507 20 211 3.2 16.1 0.00 0.00 0.00 59 1010.8
20260506044002 20 187 6.4 16.1 0.00 0.00 0.00 59 1010.7
20260506043503 20 211 6.4 16.1 0.00 0.00 0.00 59 1010.8
20260506043012 20 184 4.8 12.9 0.00 0.00 0.00 59 1010.8
20260506042509 20 211 1.6 12.9 0.00 0.00 0.00 59 1010.8
20260506042006 20 144 1.6 12.9 0.00 0.00 0.00 58 1010.7
20260506041514 20 192 3.2 11.3 0.00 0.00 0.00 58 1010.6
20260506041012 20 150 3.2 12.9 0.00 0.00 0.00 58 1010.6
20260506040503 20 203 4.8 14.5 0.00 0.00 0.00 58 1010.6
20260506040023 20 286 0.0 14.5 0.00 0.00 0.00 58 1010.6
20260506035503 20 331 1.6 16.1 0.00 0.00 0.00 58 1010.6
20260506035002 20 176 3.2 16.1 0.00 0.00 0.00 57 1010.6
20260506034507 20 194 1.6 14.5 0.00 0.00 0.00 57 1010.6
20260506034001 21 159 3.2 14.5 0.00 0.00 0.00 56 1010.6
20260506033506 21 190 4.8 19.3 0.00 0.00 0.00 56 1010.5
20260506033005 21 147 4.8 19.3 0.00 0.00 0.00 56 1010.6
20260506032503 21 178 4.8 17.7 0.00 0.00 0.00 56 1010.5
20260506032007 21 170 3.2 19.3 0.00 0.00 0.00 55 1010.5
20260506031530 21 157 1.6 19.3 0.00 0.00 0.00 55 1010.5
20260506031003 21 200 8.0 24.1 0.00 0.00 0.00 55 1010.4
20260506030506 21 179 1.6 24.1 0.00 0.00 0.00 54 1010.6
20260506030020 21 204 4.8 14.5 0.00 0.00 0.00 53 1010.5
20260506025507 21 201 4.8 16.1 0.00 0.00 0.00 53 1010.4
20260506025004 22 137 4.8 16.1 0.00 0.00 0.00 52 1010.4
20260506024520 22 163 0.0 14.5 0.00 0.00 0.00 51 1010.4
20260506024003 22 131 4.8 14.5 0.00 0.00 0.00 50 1010.4
20260506023504 22 161 4.8 17.7 0.00 0.00 0.00 49 1010.4
20260506023007 22 134 4.8 17.7 0.00 0.00 0.00 48 1010.4
20260506022503 22 197 4.8 20.9 0.00 0.00 0.00 47 1010.4
20260506022007 22 181 6.4 19.3 0.00 0.00 0.00 47 1010.5
20260506021510 22 156 3.2 11.3 0.00 0.00 0.00 46 1010.4
20260506021007 23 186 3.2 20.9 0.00 0.00 0.00 46 1010.4
20260506020511 23 148 6.4 22.5 0.00 0.00 0.00 45 1010.3
20260506020005 23 173 8.0 22.5 0.00 0.00 0.00 45 1010.4
20260506015506 23 174 6.4 17.7 0.00 0.00 0.00 44 1010.3
20260506015007 23 159 4.8 19.3 0.00 0.00 0.00 43 1010.3
20260506014522 23 174 3.2 24.1 0.00 0.00 0.00 43 1010.3
20260506014003 23 144 1.6 24.1 0.00 0.00 0.00 42 1010.1
20260506013511 23 162 6.4 20.9 0.00 0.00 0.00 42 1010.1
20260506013004 23 175 4.8 17.7 0.00 0.00 0.00 41 1009.9
20260506012504 23 229 1.6 17.7 0.00 0.00 0.00 41 1010.0
20260506012006 24 173 4.8 19.3 0.00 0.00 0.00 41 1009.9
20260506011510 24 181 6.4 25.7 0.00 0.00 0.00 41 1009.8
20260506011007 24 143 3.2 25.7 0.00 0.00 0.00 40 1009.8
20260506010503 24 155 8.0 24.1 0.00 0.00 0.00 40 1009.8
20260506010018 24 186 4.8 14.5 0.00 0.00 0.00 40 1009.7
20260506005506 24 210 4.8 12.9 0.00 0.00 0.00 39 1009.7
20260506005009 25 202 3.2 19.3 0.00 0.00 0.00 38 1009.7
20260506004521 25 203 8.0 20.9 0.00 0.00 0.00 38 1009.7
20260506004011 25 173 4.8 20.9 0.00 0.00 0.00 37 1009.5
20260506003511 25 179 6.4 20.9 0.00 0.00 0.00 37 1009.5
20260506003013 25 144 6.4 24.1 0.00 0.00 0.00 36 1009.4
20260506002507 25 194 3.2 24.1 0.00 0.00 0.00 35 1009.3
20260506002013 25 160 8.0 17.7 0.00 0.00 0.00 35 1009.1
20260506001508 25 180 3.2 14.5 0.00 0.00 0.00 35 1009.1
20260506001004 25 208 1.6 19.3 0.00 0.00 0.00 34 1009.1
20260506000504 25 154 4.8 19.3 0.00 0.00 0.00 34 1009.0
20260506000014 25 186 6.4 24.1 0.00 0.00 0.00 34 1009.0
20260505235504 25 124 4.8 24.1 0.00 0.00 0.00 33 1009.0
20260505235005 25 178 3.2 16.1 0.00 0.00 0.00 33 1009.1
20260505234520 25 208 3.2 12.9 0.00 0.00 0.00 33 1009.0
20260505234007 25 182 0.0 16.1 0.00 0.00 0.00 33 1009.0
20260505233508 25 203 6.4 20.9 0.00 0.00 0.00 32 1009.0
20260505233019 25 185 0.0 20.9 0.00 0.00 0.00 32 1009.0
20260505232509 26 194 6.4 19.3 0.00 0.00 0.00 32 1009.0
20260505232003 26 180 4.8 14.5 0.00 0.00 0.00 31 1008.9
20260505231524 26 169 3.2 17.7 0.00 0.00 0.00 32 1008.8
20260505231009 26 323 3.2 17.7 0.00 0.00 0.00 31 1008.7
20260505230511 26 184 4.8 14.5 0.00 0.00 0.00 30 1008.6
20260505230021 26 161 3.2 30.6 0.00 0.00 0.00 30 1008.6
20260505225507 26 219 8.0 30.6 0.00 0.00 0.00 30 1008.5
20260505225009 26 171 11.3 30.6 0.00 0.00 0.00 29 1008.8
20260505224515 26 184 4.8 22.5 0.00 0.00 0.00 29 1008.7
20260505224007 26 190 6.4 25.7 0.00 0.00 0.00 29 1008.7
20260505223514 27 178 9.7 25.7 0.00 0.00 0.00 29 1008.7
20260505223021 27 205 1.6 16.1 0.00 0.00 0.00 29 1008.5
20260505222506 27 207 6.4 25.7 0.00 0.00 0.00 29 1008.4
20260505222013 27 183 8.0 25.7 0.00 0.00 0.00 28 1008.6
20260505221524 27 300 6.4 24.1 0.00 0.00 0.00 28 1008.4
20260505221006 27 188 9.7 20.9 0.00 0.00 0.00 28 1008.6
20260505220507 27 178 6.4 19.3 0.00 0.00 0.00 30 1008.2
20260505220023 27 188 4.8 22.5 0.00 0.00 0.00 30 1008.3
20260505215510 27 166 8.0 32.2 0.00 0.00 0.00 30 1008.4
20260505215006 27 162 11.3 32.2 0.00 0.00 0.00 30 1008.3
20260505214513 27 178 9.7 24.1 0.00 0.00 0.00 29 1008.3
20260505214008 27 209 9.7 24.1 0.00 0.00 0.00 29 1008.2
20260505213506 27 192 6.4 20.9 0.00 0.00 0.00 29 1008.0
20260505213018 27 183 8.0 29.0 0.00 0.00 0.00 29 1007.9
20260505212507 27 232 9.7 30.6 0.00 0.00 0.00 30 1008.0
20260505212011 28 190 11.3 30.6 0.00 0.00 0.00 30 1007.8
20260505211514 28 187 3.2 20.9 0.00 0.00 0.00 32 1007.9
20260505211007 27 351 6.4 25.7 0.00 0.00 0.00 31 1007.9
20260505210511 28 188 6.4 25.7 0.00 0.00 0.00 30 1007.9
20260505210029 28 135 3.2 30.6 0.00 0.00 0.00 31 1007.9
20260505205512 28 189 3.2 30.6 0.00 0.00 0.00 29 1007.8
20260505205014 28 215 8.0 27.4 0.00 0.00 0.00 29 1008.2
20260505204509 28 163 11.3 27.4 0.00 0.00 0.00 28 1008.0
20260505204003 28 199 6.4 29.0 0.00 0.00 0.00 27 1008.1
20260505203502 28 213 8.0 29.0 0.00 0.00 0.00 30 1008.1
20260505203005 28 145 6.4 35.4 0.00 0.00 0.00 30 1008.1
20260505202508 28 170 12.9 37.0 0.00 0.00 0.00 29 1007.9
20260505202011 28 315 6.4 37.0 0.00 0.00 0.00 31 1008.0
20260505201504 28 125 9.7 37.0 0.00 0.00 0.00 29 1008.1
20260505201005 28 316 9.7 35.4 0.00 0.00 0.00 28 1008.2
20260505200504 28 52 9.7 27.4 0.00 0.00 0.00 29 1008.1
20260505200002 28 53 8.0 41.8 0.00 0.00 0.00 31 1008.0
20260505195501 28 153 3.2 41.8 0.00 0.00 0.00 32 1008.0
20260505195002 28 186 11.3 35.4 0.00 0.00 0.00 31 1008.0
20260505194513 28 209 8.0 35.4 0.00 0.00 0.00 32 1007.9
20260505194006 28 175 9.7 35.4 0.00 0.00 0.00 32 1008.1
20260505193503 28 191 11.3 37.0 0.00 0.00 0.00 31 1008.3
20260505193013 28 180 14.5 37.0 0.00 0.00 0.00 31 1008.1
20260505192506 28 163 8.0 25.7 0.00 0.00 0.00 29 1008.3
20260505192005 28 206 8.0 37.0 0.00 0.00 0.00 31 1008.3
20260505191511 28 290 11.3 37.0 0.00 0.00 0.00 30 1008.4
20260505191012 28 200 12.9 30.6 0.00 0.00 0.00 31 1008.6
20260505190503 27 5 9.7 33.8 0.00 0.00 0.00 34 1008.6
20260505190006 27 194 16.1 33.8 0.00 0.00 0.00 32 1008.6
20260505185503 28 213 9.7 25.7 0.00 0.00 0.00 31 1008.7
20260505185005 28 148 14.5 33.8 0.00 0.00 0.00 31 1008.9
20260505184506 28 171 8.0 33.8 0.00 0.00 0.00 33 1008.9
20260505184007 27 214 12.9 32.2 0.00 0.00 0.00 35 1009.2
20260505183506 28 135 12.9 30.6 0.00 0.00 0.00 33 1009.0
20260505183005 27 196 8.0 25.7 0.00 0.00 0.00 34 1009.0
20260505182503 27 188 6.4 35.4 0.00 0.00 0.00 34 1009.0
20260505182009 27 169 14.5 35.4 0.00 0.00 0.00 34 1009.0
20260505181515 27 202 8.0 29.0 0.00 0.00 0.00 34 1008.9
20260505181004 27 164 14.5 32.2 0.00 0.00 0.00 33 1009.1
20260505180508 27 189 16.1 37.0 0.00 0.00 0.00 33 1009.3
20260505180021 27 188 9.7 37.0 0.00 0.00 0.00 34 1009.2
20260505175504 27 204 4.8 24.1 0.00 0.00 0.00 37 1009.2
20260505175004 27 17 9.7 24.1 0.00 0.00 0.00 38 1009.4
20260505174508 27 210 8.0 24.1 0.00 0.00 0.00 37 1009.4
20260505174004 27 192 9.7 25.7 0.00 0.00 0.00 37 1009.5
20260505173505 27 160 9.7 27.4 0.00 0.00 0.00 38 1009.5
20260505173009 27 157 9.7 27.4 0.00 0.00 0.00 39 1009.6
20260505172506 27 168 4.8 19.3 0.00 0.00 0.00 40 1009.6
20260505172012 27 63 8.0 20.9 0.00 0.00 0.00 41 1009.7
20260505171515 27 290 4.8 20.9 0.00 0.00 0.00 40 1009.7
20260505171007 26 150 4.8 16.1 0.00 0.00 0.00 43 1010.0
20260505170505 26 155 4.8 17.7 0.00 0.00 0.00 41 1009.9
20260505170013 26 202 6.4 20.9 0.00 0.00 0.00 40 1010.0
20260505165504 26 180 4.8 20.9 0.00 0.00 0.00 42 1010.0
20260505165013 26 145 4.8 16.1 0.00 0.00 0.00 44 1010.0
20260505164525 26 117 3.2 16.1 0.00 0.00 0.00 43 1010.0
20260505164004 26 213 8.0 16.1 0.00 0.00 0.00 43 1010.2
20260505163504 26 288 4.8 19.3 0.00 0.00 0.00 45 1010.3
20260505163010 26 187 4.8 19.3 0.00 0.00 0.00 43 1010.2
20260505162504 25 155 3.2 14.5 0.00 0.00 0.00 44 1010.3
20260505162006 25 167 4.8 11.3 0.00 0.00 0.00 43 1010.4
20260505161510 25 157 3.2 19.3 0.00 0.00 0.00 44 1010.4
20260505161007 25 232 8.0 19.3 0.00 0.00 0.00 44 1010.6
20260505160502 25 144 4.8 14.5 0.00 0.00 0.00 45 1010.6
20260505153012 24 139 6.4 17.7 0.00 0.00 0.00 46 1011.0
20260505152508 23 120 6.4 17.7 0.00 0.00 0.00 48 1011.0
20260505152008 23 173 1.6 11.3 0.00 0.00 0.00 47 1011.1
20260505151507 23 315 1.6 16.1 0.00 0.00 0.00 49 1011.0
20260505151003 23 149 1.6 16.1 0.00 0.00 0.00 48 1010.9
20260505150504 23 154 3.2 16.1 0.00 0.00 0.00 49 1011.0
20260505140506 21 202 4.8 16.1 0.00 0.00 0.00 55 1011.5
20260505125007 17 195 4.8 14.5 0.00 0.00 0.00 63 1011.1
20260505124515 17 166 4.8 12.9 0.00 0.00 0.00 63 1011.0
20260505124009 17 160 1.6 12.9 0.00 0.00 0.00 66 1011.0
20260505123508 17 157 6.4 12.9 0.00 0.00 0.00 65 1011.0